Location: Ellingshausen
(50.5460°N, 10.4723°E)
Time: 12:15:29
(UTC+00:00)

Cosmos 676 Rocket - Pass Details

Date: 18 April 2026
Orbit: 750 x 779 km, 74.0° (Epoch: 19 May)

Event Time Altitude Azimuth Distance (km) Brightness Sun altitude
Rises 00:23:03 0° 326° (NW) 3,264 7.8 -27.0°
Reaches altitude 10° 00:25:55 10° 311° (NW) 2,327 6.7 -26.9°
Enters shadow 00:28:18 19° 287° (WNW) 1,776 5.8 -26.8°
